When you browse on this site, cookies collect data to enhance your experience and personalize the content and advertising you see.
Visit our Privacy Policy to learn more. By continuing to use the site, you agree to this use of cookies and data.
  • în România
  • Lista ţărilor
  • Pe 7 zile
  • Temperatura apei
  • Meteo pe hartă
  • Widget-uri
  • user-avatar
    Intrare

    Meteo pe oră la Shusha

    Astăzi, 5 Iunie, Vineri

    Timp Temperatura Precipitaţii Vânt Presiune Umiditate
    00:00 +15°C° 0 mm 1 m/s 658 mmHg 82%
    01:00 +15°C° 0 mm 1 m/s 658 mmHg 80%
    02:00 +15°C° 0 mm 1 m/s 658 mmHg 79%
    03:00 +15°C° 0 mm 1 m/s 658 mmHg 78%
    04:00 +15°C° 0 mm 1 m/s 659 mmHg 77%
    05:00 +16°C° 0 mm 1 m/s 659 mmHg 76%
    06:00 +16°C° 0 mm 1 m/s 660 mmHg 75%
    07:00 +19°C° 0.1 mm 1 m/s 660 mmHg 70%
    08:00 +19°C° 0.1 mm 2 m/s 661 mmHg 65%
    09:00 +21°C° 0 mm 2 m/s 661 mmHg 60%
    10:00 +23°C° 0.2 mm 2 m/s 661 mmHg 58%
    11:00 +24°C° 0.2 mm 2 m/s 661 mmHg 56%
    12:00 +24°C° 0.2 mm 3 m/s 661 mmHg 55%
    13:00 +25°C° 0.6 mm 3 m/s 661 mmHg 53%
    14:00 +25°C° 0.6 mm 3 m/s 661 mmHg 52%
    15:00 +25°C° 0 mm 3 m/s 661 mmHg 50%
    16:00 +24°C° 0.5 mm 3 m/s 661 mmHg 53%
    17:00 +23°C° 0.5 mm 2 m/s 661 mmHg 55%
    18:00 +23°C° 0.5 mm 2 m/s 661 mmHg 58%
    19:00 +20°C° 0.3 mm 2 m/s 661 mmHg 61%
    20:00 +18°C° 0.3 mm 2 m/s 661 mmHg 65%
    21:00 +16°C° 0.3 mm 2 m/s 661 mmHg 68%
    22:00 +16°C° 0.1 mm 1 m/s 662 mmHg 67%
    23:00 +16°C° 0.1 mm 1 m/s 662 mmHg 65%

    Mâine, 6 Iunie, Sâmbătă

    Timp Temperatura Precipitaţii Vânt Presiune Umiditate
    00:00 +16°C° 0.1 mm 1 m/s 662 mmHg 64%
    01:00 +15°C° 0 mm 1 m/s 662 mmHg 66%
    02:00 +15°C° 0 mm 1 m/s 662 mmHg 68%
    03:00 +14°C° 0 mm 1 m/s 662 mmHg 70%
    04:00 +15°C° 0.1 mm 1 m/s 662 mmHg 70%
    05:00 +15°C° 0.1 mm 1 m/s 663 mmHg 70%
    06:00 +16°C° 0.1 mm 1 m/s 663 mmHg 70%
    07:00 +18°C° 0.3 mm 1 m/s 663 mmHg 67%
    08:00 +18°C° 0.3 mm 2 m/s 664 mmHg 63%
    09:00 +19°C° 0.3 mm 2 m/s 664 mmHg 60%
    10:00 +19°C° 1 mm 2 m/s 664 mmHg 60%
    11:00 +19°C° 1 mm 2 m/s 664 mmHg 61%
    12:00 +19°C° 1 mm 2 m/s 663 mmHg 61%
    13:00 +20°C° 0.3 mm 2 m/s 663 mmHg 58%
    14:00 +20°C° 0.3 mm 2 m/s 663 mmHg 55%
    15:00 +21°C° 0.3 mm 2 m/s 663 mmHg 52%
    16:00 +20°C° 0.2 mm 2 m/s 663 mmHg 58%
    17:00 +20°C° 0.2 mm 2 m/s 663 mmHg 63%
    18:00 +19°C° 0.2 mm 2 m/s 663 mmHg 68%
    19:00 +17°C° 0.4 mm 2 m/s 663 mmHg 72%
    20:00 +16°C° 0.4 mm 2 m/s 663 mmHg 76%
    21:00 +15°C° 0.4 mm 1 m/s 663 mmHg 79%
    22:00 +14°C° 0 mm 1 m/s 663 mmHg 78%
    23:00 +14°C° 0 mm 1 m/s 663 mmHg 77%

    Poimâine, 7 Iunie, Duminică

    Timp Temperatura Precipitaţii Vânt Presiune Umiditate
    00:00 +14°C° 0 mm 1 m/s 663 mmHg 76%
    01:00 +13°C° 0 mm 1 m/s 662 mmHg 75%
    02:00 +13°C° 0 mm 1 m/s 662 mmHg 74%
    03:00 +13°C° 0 mm 1 m/s 662 mmHg 72%
    04:00 +14°C° 0 mm 1 m/s 662 mmHg 71%
    05:00 +15°C° 0 mm 1 m/s 663 mmHg 69%
    06:00 +16°C° 0 mm 1 m/s 663 mmHg 68%
    07:00 +19°C° 0 mm 1 m/s 663 mmHg 63%
    08:00 +20°C° 0 mm 1 m/s 664 mmHg 58%
    09:00 +21°C° 0 mm 1 m/s 664 mmHg 53%
    10:00 +21°C° 0 mm 2 m/s 664 mmHg 52%
    11:00 +23°C° 0 mm 2 m/s 664 mmHg 50%
    12:00 +24°C° 0 mm 3 m/s 664 mmHg 49%
    13:00 +24°C° 0 mm 2 m/s 663 mmHg 48%
    14:00 +25°C° 0 mm 2 m/s 663 mmHg 48%
    15:00 +25°C° 0 mm 2 m/s 663 mmHg 48%
    16:00 +24°C° 0 mm 2 m/s 662 mmHg 51%
    17:00 +24°C° 0 mm 2 m/s 662 mmHg 54%
    18:00 +23°C° 0 mm 2 m/s 662 mmHg 56%
    19:00 +20°C° 0 mm 2 m/s 662 mmHg 60%
    20:00 +18°C° 0 mm 2 m/s 661 mmHg 63%
    21:00 +16°C° 0 mm 1 m/s 661 mmHg 66%
    22:00 +16°C° 0 mm 2 m/s 661 mmHg 66%
    23:00 +16°C° 0 mm 2 m/s 661 mmHg 65%

    8 Iunie, Luni

    Timp Temperatura Precipitaţii Vânt Presiune Umiditate
    00:00 +15°C° 0 mm 2 m/s 661 mmHg 65%
    01:00 +15°C° 0 mm 2 m/s 660 mmHg 65%
    02:00 +15°C° 0 mm 2 m/s 660 mmHg 64%
    03:00 +14°C° 0 mm 2 m/s 660 mmHg 63%
    04:00 +15°C° 0 mm 2 m/s 660 mmHg 61%
    05:00 +16°C° 0 mm 2 m/s 660 mmHg 59%
    06:00 +18°C° 0 mm 1 m/s 661 mmHg 57%
    07:00 +20°C° 0 mm 1 m/s 661 mmHg 52%
    08:00 +20°C° 0 mm 2 m/s 661 mmHg 46%
    09:00 +23°C° 0 mm 2 m/s 662 mmHg 40%
    10:00 +24°C° 0 mm 2 m/s 661 mmHg 39%
    11:00 +25°C° 0 mm 2 m/s 661 mmHg 37%
    12:00 +26°C° 0 mm 2 m/s 661 mmHg 35%
    13:00 +26°C° 0 mm 2 m/s 661 mmHg 35%
    14:00 +26°C° 0 mm 3 m/s 661 mmHg 35%
    15:00 +26°C° 0 mm 3 m/s 660 mmHg 35%
    16:00 +25°C° 0 mm 2 m/s 660 mmHg 39%
    17:00 +25°C° 0 mm 2 m/s 660 mmHg 44%
    18:00 +24°C° 0 mm 2 m/s 660 mmHg 48%
    19:00 +21°C° 0 mm 2 m/s 659 mmHg 51%
    20:00 +20°C° 0 mm 1 m/s 659 mmHg 54%
    21:00 +18°C° 0 mm 1 m/s 659 mmHg 57%
    22:00 +16°C° 0 mm 2 m/s 659 mmHg 57%
    23:00 +16°C° 0 mm 2 m/s 659 mmHg 56%

    9 Iunie, Marţi

    Timp Temperatura Precipitaţii Vânt Presiune Umiditate
    00:00 +16°C° 0 mm 2 m/s 659 mmHg 56%
    01:00 +15°C° 0 mm 2 m/s 658 mmHg 56%
    02:00 +15°C° 0 mm 2 m/s 658 mmHg 56%
    03:00 +15°C° 0 mm 2 m/s 658 mmHg 56%
    04:00 +15°C° 0 mm 2 m/s 659 mmHg 57%
    05:00 +16°C° 0 mm 2 m/s 659 mmHg 58%
    06:00 +18°C° 0 mm 1 m/s 659 mmHg 59%
    07:00 +19°C° 0 mm 2 m/s 660 mmHg 54%
    08:00 +20°C° 0 mm 2 m/s 660 mmHg 49%
    09:00 +23°C° 0 mm 2 m/s 661 mmHg 44%
    10:00 +24°C° 0 mm 2 m/s 661 mmHg 43%
    11:00 +25°C° 0 mm 2 m/s 661 mmHg 42%
    12:00 +25°C° 0 mm 3 m/s 661 mmHg 41%
    13:00 +26°C° 0 mm 2 m/s 661 mmHg 42%
    14:00 +26°C° 0 mm 2 m/s 660 mmHg 43%
    15:00 +26°C° 0 mm 2 m/s 660 mmHg 44%
    16:00 +25°C° 0 mm 2 m/s 660 mmHg 47%
    17:00 +25°C° 0 mm 1 m/s 660 mmHg 51%
    18:00 +24°C° 0 mm 1 m/s 660 mmHg 54%
    19:00 +22°C° 0 mm 1 m/s 660 mmHg 58%
    20:00 +20°C° 0 mm 1 m/s 660 mmHg 62%
    21:00 +19°C° 0 mm 1 m/s 660 mmHg 65%
    22:00 +18°C° 0.1 mm 1 m/s 660 mmHg 66%
    23:00 +18°C° 0.1 mm 1 m/s 660 mmHg 66%

    10 Iunie, Miercuri

    Timp Temperatura Precipitaţii Vânt Presiune Umiditate
    00:00 +18°C° 0.1 mm 1 m/s 660 mmHg 66%
    01:00 +18°C° 0.1 mm 1 m/s 660 mmHg 67%
    02:00 +18°C° 0.1 mm 1 m/s 660 mmHg 69%
    03:00 +16°C° 0.1 mm 1 m/s 659 mmHg 70%
    04:00 +18°C° 0 mm 1 m/s 660 mmHg 69%
    05:00 +19°C° 0 mm 1 m/s 660 mmHg 67%
    06:00 +19°C° 0 mm 1 m/s 661 mmHg 66%
    07:00 +21°C° 0 mm 1 m/s 661 mmHg 60%
    08:00 +21°C° 0 mm 2 m/s 661 mmHg 54%
    09:00 +23°C° 0 mm 2 m/s 662 mmHg 48%
    10:00 +24°C° 0 mm 2 m/s 662 mmHg 47%
    11:00 +25°C° 0 mm 2 m/s 662 mmHg 46%
    12:00 +26°C° 0 mm 3 m/s 662 mmHg 45%
    13:00 +26°C° 0.5 mm 2 m/s 662 mmHg 47%
    14:00 +26°C° 0.5 mm 2 m/s 662 mmHg 49%
    15:00 +26°C° 0.5 mm 2 m/s 661 mmHg 51%
    16:00 +25°C° 0.3 mm 1 m/s 661 mmHg 55%
    17:00 +24°C° 0.3 mm 1 m/s 661 mmHg 59%
    18:00 +24°C° 0.3 mm 1 m/s 661 mmHg 63%
    19:00 +22°C° 0.3 mm 1 m/s 661 mmHg 65%
    20:00 +21°C° 0.3 mm 1 m/s 661 mmHg 67%
    21:00 +18°C° 0.3 mm 2 m/s 661 mmHg 69%
    22:00 +18°C° 0 mm 2 m/s 661 mmHg 67%
    23:00 +18°C° 0 mm 2 m/s 661 mmHg 66%
    Arată mai mult